GW1334 Weather Reports


time (UTC)temp
F
wind
direction
speed
knots
gust
knots
rain 1hr
in
rain 24hr
in
rain mn
in
humidity
%
barometer
mb
20260505130106 36 36 6.1 7.0 0.00 0.31 0.31 95 1017.4
20260505124555 36 22 6.1 8.7 0.05 0.31 0.31 95 1016.9
20260505124051 36 43 7.0 9.6 0.07 0.30 0.30 95 1016.8
20260505123548 36 32 6.1 8.7 0.12 0.30 0.30 95 1016.9
20260505123044 36 33 7.8 9.6 0.12 0.29 0.29 95 1017.1
20260505122541 36 31 7.8 9.6 0.05 0.27 0.27 95 1017.2
20260505122038 36 11 7.8 9.6 0.05 0.27 0.27 95 1016.9
20260505121535 37 25 7.0 7.8 0.00 0.26 0.26 95 1016.9
20260505121032 37 35 8.7 11.3 0.07 0.26 0.26 95 1016.9
20260505120528 37 25 6.1 7.8 0.07 0.26 0.26 95 1016.7
20260505120023 37 15 7.0 11.3 0.05 0.25 0.25 95 1016.8
20260505115518 37 2 7.0 9.6 0.05 0.25 0.25 94 1016.7
20260505115016 37 13 7.8 9.6 0.07 0.24 0.24 94 1016.7
20260505114513 37 12 6.1 11.3 0.00 0.23 0.23 94 1016.7
20260505114009 37 2 8.7 11.3 0.05 0.23 0.23 94 1016.4
20260505113506 37 1 5.2 9.6 0.07 0.22 0.22 94 1016.5
20260505113002 37 357 7.0 8.7 0.14 0.22 0.22 94 1016.4
20260505112459 37 3 8.7 11.3 0.12 0.21 0.21 93 1016.5
20260505111956 37 4 7.0 9.6 0.12 0.20 0.20 93 1016.5
20260505111450 38 355 4.3 7.0 0.07 0.19 0.19 93 1016.2
20260505110946 39 21 9.6 9.6 0.05 0.18 0.18 93 1016.0
20260505110443 39 34 7.8 12.2 0.12 0.18 0.18 93 1016.0
20260505101914 40 21 9.6 13.0 0.12 0.12 0.12 92 1015.6
20260505101409 40 20 7.0 11.3 0.12 0.11 0.11 92 1015.4
20260505100905 40 21 10.4 13.9 0.12 0.10 0.10 92 1015.1
20260505100402 40 357 8.7 13.9 0.14 0.09 0.09 92 1014.9
20260505095857 41 33 7.8 8.7 0.07 0.08 0.08 91 1014.9
20260505095355 41 20 6.1 11.3 0.00 0.07 0.07 91 1014.9
20260505094851 41 39 7.8 12.2 0.00 0.07 0.07 91 1015.1
20260505094348 41 23 7.8 11.3 0.05 0.07 0.07 91 1014.9
20260505093844 41 44 7.8 11.3 0.05 0.07 0.07 91 1014.8
20260505093341 41 37 8.7 9.6 0.07 0.06 0.06 90 1014.4
20260505092838 41 37 11.3 13.9 0.07 0.06 0.06 91 1014.6
20260505092337 41 48 7.8 11.3 0.00 0.05 0.05 91 1014.6
20260505091833 41 48 9.6 12.2 0.00 0.05 0.05 91 1014.6
20260505091331 41 51 7.8 9.6 0.05 0.05 0.05 91 1014.6
20260505090829 41 49 13.0 14.8 0.05 0.05 0.05 91 1014.3
20260505090327 42 45 7.8 12.2 0.00 0.04 0.04 91 1014.2
20260505085824 42 47 12.2 13.0 0.00 0.04 0.04 91 1014.1
20260505085322 42 46 7.8 12.2 0.00 0.04 0.04 91 1014.4
20260505084819 42 47 9.6 13.0 0.00 0.04 0.04 92 1014.3
20260505084318 42 57 12.2 18.2 0.00 0.04 0.04 92 1014.2
20260505083814 42 65 8.7 13.9 0.00 0.04 0.04 92 1014.2
20260505083312 42 72 9.6 14.8 0.07 0.04 0.04 92 1014.1
20260505082808 43 60 12.2 14.8 0.07 0.04 0.04 92 1014.2
20260505082305 43 49 8.7 8.7 0.00 0.03 0.03 92 1014.2
20260505081801 43 67 9.6 13.0 0.00 0.03 0.03 91 1014.4
20260505081258 43 40 10.4 13.9 0.05 0.03 0.03 91 1014.2
20260505080755 44 31 9.6 13.0 0.05 0.03 0.03 90 1014.1
20260505080250 47 40 7.8 11.3 0.07 0.02 0.02 90 1014.0
20260505075746 47 33 7.0 7.8 0.07 0.02 0.02 88 1014.2
20260505075244 48 41 3.5 6.1 0.05 0.01 0.01 86 1014.6
20260505074741 48 40 3.5 4.3 0.05 0.01 0.01 85 1014.4
20260505074238 48 75 3.5 4.3 0.00 0.00 0.00 83 1014.4
20260505073735 48 86 2.6 2.6 0.00 0.00 0.00 83 1014.4
20260505073233 48 67 1.7 2.6 0.00 0.00 0.00 84 1014.3
20260505072730 48 53 2.6 2.6 0.00 0.00 0.00 84 1014.6
20260505072226 48 49 1.7 1.7 0.00 0.00 0.00 84 1014.7
20260505071721 48 60 1.7 2.6 0.00 0.00 0.00 84 1014.6
20260505071219 48 72 1.7 1.7 0.00 0.00 0.00 85 1014.3
20260505070716 48 78 0.9 2.6 0.00 0.00 0.00 86 1014.3
20260505070212 48 105 4.3 5.2 0.00 0.00 0.00 87 1014.3
20260505065708 48 123 4.3 4.3 0.00 0.00 0.00 88 1014.1
20260505065205 48 111 3.5 5.2 0.00 0.00 0.00 89 1014.1
20260505064702 48 106 3.5 6.1 0.00 0.00 0.00 90 1014.0
20260505064200 48 134 3.5 5.2 0.00 0.00 0.00 91 1014.0
20260505063657 48 117 2.6 2.6 0.00 0.00 0.00 92 1014.1
20260505063153 48 125 2.6 6.1 0.00 0.00 0.00 92 1014.1
20260505062649 48 145 4.3 5.2 0.00 0.00 0.00 93 1014.1
20260505062147 48 130 4.3 5.2 0.00 0.00 0.00 93 1014.1
20260505061644 48 141 1.7 4.3 0.00 0.00 0.00 94 1014.2
20260505061142 49 108 2.6 4.3 0.00 0.00 0.00 94 1014.1
20260505060639 48 90 1.7 1.7 0.00 0.00 0.00 94 1014.2
20260505060136 48 111 0.9 1.7 0.00 0.00 0.00 94 1014.0
20260505055631 48 123 1.7 1.7 0.00 0.18 0.18 94 1014.1
20260505055128 48 182 0.9 0.9 0.00 0.18 0.18 94 1014.1
20260505054626 48 208 0.9 1.7 0.00 0.18 0.18 94 1014.0
20260505054124 48 200 1.7 1.7 0.00 0.18 0.18 93 1013.9
20260505053621 48 249 1.7 1.7 0.00 0.18 0.18 93 1013.8
20260505053117 48 196 0.0 0.9 0.00 0.18 0.18 93 1013.8
20260505052614 48 185 0.9 0.9 0.00 0.18 0.18 93 1014.0
20260505052112 48 235 0.9 1.7 0.00 0.18 0.18 93 1014.0
20260505051608 48 224 1.7 1.7 0.00 0.18 0.18 93 1013.8
20260505051107 48 214 2.6 2.6 0.00 0.18 0.18 93 1013.9
20260505050604 48 198 2.6 4.3 0.00 0.18 0.18 93 1013.8
20260505041532 49 224 2.6 4.3 0.12 0.17 0.17 92 1014.0
20260505041029 49 196 2.6 4.3 0.12 0.16 0.16 91 1014.0
20260505040526 49 209 3.5 4.3 0.07 0.14 0.14 91 1014.0
20260505040024 49 214 2.6 4.3 0.14 0.14 0.14 90 1014.0
20260505035519 49 241 3.5 4.3 0.12 0.13 0.13 90 1014.0
20260505035016 49 246 4.3 5.2 0.12 0.12 0.12 89 1014.2
20260505034513 49 267 4.3 6.1 0.07 0.11 0.11 88 1014.2
20260505034010 49 273 5.2 7.0 0.12 0.10 0.10 87 1014.0
20260505033507 49 275 4.3 7.0 0.17 0.10 0.10 87 1014.0
20260505033005 49 287 4.3 8.7 0.12 0.08 0.08 86 1013.8
20260505032502 50 295 5.2 7.0 0.12 0.07 0.07 85 1014.0
20260505031958 50 270 6.1 7.8 0.12 0.06 0.06 84 1013.8
20260505031455 51 262 6.1 7.8 0.12 0.05 0.05 82 1013.6
20260505030952 51 279 3.5 4.3 0.12 0.04 0.04 80 1013.9
20260505030448 51 347 0.9 1.7 0.12 0.03 0.03 79 1013.5
20260505025943 51 4 0.9 1.7 0.05 0.02 0.02 78 1013.4
20260505025441 51 12 1.7 1.7 0.00 0.01 0.01 77 1013.2
20260505024940 52 26 1.7 2.6 0.00 0.01 0.01 75 1013.2
20260505024437 52 16 1.7 2.6 0.00 0.01 0.01 73 1013.1
20260505023934 53 0 2.6 4.3 0.00 0.01 0.01 71 1012.8
20260505023431 53 10 4.3 6.1 0.00 0.01 0.01 70 1012.7
20260505022928 52 0 6.1 7.0 0.00 0.01 0.01 72 1012.6
20260505022426 53 359 3.5 4.3 0.00 0.01 0.01 72 1012.7
20260505021922 53 8 3.5 5.2 0.00 0.01 0.01 71 1012.6
20260505021419 53 345 4.3 6.1 0.07 0.01 0.01 69 1012.7
20260505020915 54 357 4.3 6.1 0.07 0.01 0.01 69 1012.9
20260505020410 53 330 4.3 5.2 0.00 0.00 0.00 74 1013.1
20260505015908 53 333 3.5 5.2 0.00 0.00 0.00 72 1012.9
20260505015405 53 323 3.5 4.3 0.00 0.00 0.00 75 1012.9
20260505014902 53 313 2.6 2.6 0.00 0.00 0.00 75 1012.8
20260505014359 52 323 3.5 4.3 0.00 0.00 0.00 75 1012.7
20260505013855 52 341 2.6 6.1 0.00 0.00 0.00 75 1012.7
20260505013352 53 320 4.3 7.0 0.00 0.00 0.00 73 1012.9
20260505012851 55 319 10.4 12.2 0.00 0.00 0.00 66 1012.7
20260505012349 58 335 6.1 7.8 0.00 0.00 0.00 51 1012.4
20260505011844 58 310 3.5 4.3 0.00 0.00 0.00 49 1012.4
20260505011341 58 339 3.5 5.2 0.00 0.00 0.00 49 1012.5
20260505010837 58 337 7.0 9.6 0.00 0.00 0.00 48 1012.2
20260505010333 58 341 7.8 9.6 0.00 0.00 0.00 49 1012.1
20260505005830 59 341 9.6 12.2 0.00 0.00 0.00 48 1011.8
20260505005327 59 353 6.1 7.8 0.00 0.00 0.00 47 1011.7
20260505004824 59 4 4.3 7.8 0.00 0.00 0.00 48 1011.7
20260505004320 59 23 6.1 7.0 0.00 0.00 0.00 49 1011.7
20260505003818 59 0 8.7 8.7 0.00 0.00 0.00 48 1011.8
20260505003315 59 11 6.1 8.7 0.00 0.00 0.00 48 1011.7
20260505002811 59 3 6.1 8.7 0.00 0.00 0.00 50 1011.7
20260505002308 59 15 8.7 9.6 0.00 0.00 0.00 49 1011.7
20260505001806 59 18 8.7 12.2 0.00 0.00 0.00 48 1011.8
20260505001303 59 2 8.7 13.0 0.00 0.00 0.00 48 1011.5
20260505000800 59 8 7.8 9.6 0.00 0.00 0.00 48 1011.7
20260505000258 59 1 7.8 11.3 0.00 0.00 0.00 50 1011.7
20260504235754 58 5 7.0 8.7 0.00 0.00 0.00 51 1011.4
20260504235250 59 357 10.4 11.3 0.00 0.00 0.00 50 1011.8
20260504234748 62 7 8.7 13.9 0.00 0.00 0.00 44 1011.8
20260504234245 62 352 4.3 5.2 0.00 0.00 0.00 39 1011.8
20260504233741 61 348 7.0 7.8 0.00 0.00 0.00 39 1011.7
20260504233237 61 356 7.8 8.7 0.00 0.00 0.00 41 1011.5
20260504232735 62 309 2.6 5.2 0.00 0.00 0.00 42 1011.5
20260504232231 62 282 4.3 7.0 0.00 0.00 0.00 49 1011.5
20260504231728 62 264 16.5 20.0 0.00 0.00 0.00 39 1011.7
20260504231225 63 295 11.3 14.8 0.00 0.00 0.00 39 1011.2
20260504230721 63 330 6.1 7.8 0.00 0.00 0.00 34 1011.2
20260504230220 63 345 7.0 8.7 0.00 0.00 0.00 34 1011.1
20260504225718 63 339 5.2 7.0 0.00 0.00 0.00 34 1011.2
20260504225214 63 347 4.3 7.8 0.00 0.00 0.00 35 1010.9
20260504224711 63 6 7.8 8.7 0.00 0.00 0.00 34 1010.7
20260504224209 63 10 6.1 8.7 0.00 0.00 0.00 34 1010.6
20260504223704 64 9 6.1 7.0 0.00 0.00 0.00 34 1010.5
20260504223200 64 27 5.2 7.8 0.00 0.00 0.00 33 1010.5
20260504222657 64 52 7.0 9.6 0.00 0.00 0.00 32 1010.2
20260504222154 64 31 8.7 11.3 0.00 0.00 0.00 32 1010.3
20260504221651 64 33 7.0 14.8 0.00 0.00 0.00 32 1010.3
20260504221149 66 4 7.8 13.9 0.00 0.00 0.00 32 1010.3
20260504220645 66 23 7.8 11.3 0.00 0.00 0.00 31 1010.2
20260504220143 65 358 7.0 12.2 0.00 0.00 0.00 32 1010.2
20260504215638 66 17 13.9 17.4 0.00 0.00 0.00 32 1010.5
20260504215136 67 13 16.5 19.1 0.00 0.00 0.00 30 1010.3
20260504214632 68 27 11.3 15.6 0.00 0.00 0.00 28 1010.6
20260504214128 67 0 13.0 20.9 0.00 0.00 0.00 30 1010.5
20260504213625 68 19 12.2 20.9 0.00 0.00 0.00 29 1010.9
20260504213122 69 350 10.4 18.2 0.00 0.00 0.00 28 1011.0
20260504212618 68 356 12.2 15.6 0.00 0.00 0.00 28 1010.9
20260504212115 68 349 13.0 18.2 0.00 0.00 0.00 30 1011.0
20260504211613 67 26 12.2 13.9 0.00 0.00 0.00 30 1011.1
20260504211109 65 320 10.4 17.4 0.00 0.00 0.00 31 1011.1
20260504210607 64 28 12.2 21.7 0.00 0.00 0.00 32 1010.9
20260504205601 64 358 13.0 19.1 0.00 0.00 0.00 34 1010.7
20260504205058 66 16 10.4 13.9 0.00 0.00 0.00 33 1010.7
20260504204556 66 338 7.8 9.6 0.00 0.00 0.00 28 1010.9
20260504204055 67 333 7.8 9.6 0.00 0.00 0.00 26 1010.9
20260504203553 67 354 4.3 8.7 0.00 0.00 0.00 26 1010.4
20260504203050 68 28 7.0 11.3 0.00 0.00 0.00 25 1010.5
20260504202545 68 11 12.2 17.4 0.00 0.00 0.00 25 1009.9
20260504202042 70 11 12.2 20.9 0.00 0.00 0.00 23 1009.6
20260504201539 72 24 12.2 17.4 0.00 0.00 0.00 22 1009.7
20260504201037 72 314 9.6 11.3 0.00 0.00 0.00 22 1009.7
20260504200533 72 300 7.0 13.0 0.00 0.00 0.00 20 1009.7
20260504200030 72 14 4.3 7.0 0.00 0.00 0.00 20 1009.9
20260504195526 73 344 10.4 14.8 0.00 0.00 0.00 19 1009.7
20260504195023 72 346 8.7 13.0 0.00 0.00 0.00 20 1010.0
20260504194519 72 321 11.3 14.8 0.00 0.00 0.00 19 1009.8
20260504194015 73 305 4.3 7.0 0.00 0.00 0.00 19 1010.0
20260504193512 74 331 11.3 13.9 0.00 0.00 0.00 18 1009.7
20260504193011 73 357 10.4 11.3 0.00 0.00 0.00 18 1009.7
20260504192509 73 302 8.7 13.9 0.00 0.00 0.00 18 1009.5
20260504192007 73 304 6.1 9.6 0.00 0.00 0.00 18 1009.7
20260504191504 73 319 7.0 13.0 0.00 0.00 0.00 18 1009.6
20260504190959 73 336 8.7 14.8 0.00 0.00 0.00 19 1009.7
20260504190455 73 329 6.1 13.0 0.00 0.00 0.00 19 1009.6
20260504185952 73 294 10.4 14.8 0.00 0.00 0.00 19 1009.8
20260504185449 73 325 3.5 7.0 0.00 0.00 0.00 19 1009.8
20260504184945 74 310 11.3 14.8 0.00 0.00 0.00 18 1009.8
20260504184441 74 357 7.8 13.0 0.00 0.00 0.00 20 1009.8
20260504183937 73 296 10.4 14.8 0.00 0.00 0.00 20 1010.0
20260504183434 73 311 11.3 15.6 0.00 0.00 0.00 17 1009.8
20260504182932 74 318 11.3 15.6 0.00 0.00 0.00 18 1009.8
20260504182429 73 349 10.4 15.6 0.00 0.00 0.00 19 1009.9
20260504181926 74 287 7.8 14.8 0.00 0.00 0.00 19 1010.3
20260504181423 74 279 10.4 15.6 0.00 0.00 0.00 17 1010.0
20260504180922 73 294 13.0 20.0 0.00 0.00 0.00 18 1010.4
20260504180420 73 317 14.8 17.4 0.00 0.00 0.00 20 1010.4
20260504175918 73 296 13.0 18.2 0.00 0.00 0.00 20 1010.3
20260504175415 74 302 14.8 19.1 0.00 0.00 0.00 19 1010.3
20260504174913 74 294 14.8 19.1 0.00 0.00 0.00 18 1010.5
20260504174410 73 268 12.2 17.4 0.00 0.00 0.00 20 1010.5
20260504173907 73 281 11.3 17.4 0.00 0.00 0.00 21 1010.6
20260504173403 72 281 11.3 19.1 0.00 0.00 0.00 23 1010.6
20260504172901 72 277 13.9 18.2 0.00 0.00 0.00 21 1010.9
20260504172357 72 301 13.0 17.4 0.00 0.00 0.00 22 1011.0
20260504171853 70 301 8.7 12.2 0.00 0.00 0.00 23 1011.0
20260504171351 70 260 10.4 14.8 0.00 0.00 0.00 24 1011.1
20260504170848 70 290 10.4 13.9 0.00 0.00 0.00 24 1011.1
20260504170344 69 280 13.0 14.8 0.00 0.00 0.00 24 1011.2
20260504160303 67 295 13.0 14.8 0.00 0.00 0.00 24 1011.3
20260504150728 58 212 2.6 4.3 0.00 0.00 0.00 39 1011.8
20260504150225 57 182 4.3 5.2 0.00 0.00 0.00 41 1011.8
20260504141154 53 231 1.7 2.6 0.00 0.00 0.00 42 1011.9
20260504140651 52 235 1.7 2.6 0.00 0.00 0.00 44 1012.0
20260504140146 51 217 3.5 5.2 0.00 0.00 0.00 44 1012.0